This demonstration page uses our WeatherBlox Daily Observations layout. Learn more.

41.55636, -103.73856

Hourly Observations for August 13, 2015

Temp ( °F °C ) Dew Point ( °F °C ) Humidity (%) Winds ( mph kmh ) Pressure ( in mb ) Visibility ( mi km ) Precip ( " mm )
12:53 am 00:53 Partly Cloudy 72 22.2 64 17.8 76 76 E 7 11 29.98 1015 10 16.0934 0 0
1:53 am 01:53 Clear 70 21.1 65 18.3 84 84 Calm 29.97 1015 10 16.0934 0 0
2:53 am 02:53 Clear 67 19.4 64 17.8 91 91 ESE 3 6 29.97 1015 10 16.0934 0 0
3:53 am 03:53 Clear 65 18.3 63 17.2 93 93 E 5 7 29.97 1015 8 12.87472 0 0
4:53 am 04:53 Clear 64 17.8 62 16.7 93 93 Calm 29.97 1015 10 16.0934 0 0
5:53 am 05:53 Clear 64 17.8 59 15 84 84 N 5 7 29.97 1015 10 16.0934 0 0
6:53 am 06:53 Sunny 66 18.9 59 15 78 78 NNW 6 9 29.99 1016 10 16.0934 0 0
7:53 am 07:53 Sunny 73 22.8 58 14.4 59 59 WNW 9 15 30.01 1016 10 16.0934 0 0
8:53 am 08:53 Sunny 77 25 59 15 54 54 WNW 12 19 30.01 1016 10 16.0934 0 0
9:53 am 09:53 Sunny 84 28.9 59 15 43 43 WNW 15 24 30 1016 10 16.0934 0 0
10:53 am 10:53 Sunny 87 30.6 57 13.9 36 36 WNW 13 20 30 1016 10 16.0934 0 0
11:53 am 11:53 Sunny 91 32.8 57 13.9 32 32 WNW 12 19 29.98 1015 10 16.0934 0 0
12:53 pm 12:53 Sunny 93 33.9 52 11.1 25 25 NW 13 20 29.96 1015 10 16.0934 0 0
1:53 pm 13:53 Sunny 95 35 50 10 22 22 N 13 20 29.96 1014 10 16.0934 0 0
2:53 pm 14:53 Sunny 96 35.6 49 9.4 20 20 NNW 15 24 29.95 1014 10 16.0934 0 0
3:53 pm 15:53 Mostly Sunny 96 35.6 50 10 21 21 NW 12 19 29.94 1014 10 16.0934 0 0
4:53 pm 16:53 Sunny 96 35.6 48 8.9 19 19 NNW 14 22 29.94 1014 10 16.0934 0 0
5:53 pm 17:53 Sunny 94 34.4 51 10.6 23 23 N 9 15 29.94 1014 10 16.0934 0 0
6:53 pm 18:53 Sunny 90 32.2 53 11.7 28 28 N 7 11 29.93 1014 10 16.0934 0 0
7:53 pm 19:53 Sunny 80 26.7 56 13.3 44 44 ENE 7 11 29.96 1015 10 16.0934 0 0
8:53 pm 20:53 Clear 75 23.9 60 15.6 60 60 ENE 7 11 30 1016 10 16.0934 0 0
9:53 pm 21:53 Clear 73 22.8 60 15.6 64 64 SE 3 6 30.03 1017 10 16.0934 0 0
10:53 pm 22:53 Clear 71 21.7 60 15.6 68 68 Calm 30.04 1017 10 16.0934 0 0
11:53 pm 23:53 Clear 68 20 60 15.6 76 76 E 8 13 30.04 1017 10 16.0934 0 0

Powered by AerisWeather